Hourly Data Report for July 23, 1967

All times are specified in Local Standard Time (LST). Add 1 hour to adjust for Daylight Saving Time where and when it is observed.

MONTREAL/PIERRE ELLIOTT TRUDEAU INTL A
QUEBEC

45°28'00.000" N
73°45'00.000" W
36.00 m
7025250
71627
YUL

Download Data

Hourly Data (July 1967)
Hourly Data Report for July 23, 1967
TIME Temp Definition
°C
Dew Point Definition
°C
Rel Hum Definition
%
Wind Dir Definition
10's deg

Wind Spd Definition
km/h
Visibility Definition
km
Stn Press Definition
kPa
Hmdx Definition


Wind Chill Definition


Weather Definition


00:00 21.1 18.3 85 20 6 9.7 100.93 27   Smoke,Haze
01:00 20.0 18.3 90 18 5 9.7 100.92 26   Smoke,Haze
02:00 19.4 18.3 92   0 9.7 100.89     Fog
03:00 18.9 17.8 92 18 3 9.7 100.90     Fog
04:00 18.3 17.2 94 18 5 8.0 100.89     Fog
05:00 19.4 17.2 88 20 8 4.8 100.90     Haze
06:00 20.6 18.3 87 20 10 4.8 100.86 27   Haze
07:00 20.6 17.8 85 16 10 4.8 100.85 26   Haze
08:00 21.7 18.3 82 16 8 6.4 100.84 28   Haze
09:00 23.9 18.9 74 18 13 8.0 100.80 31   Haze
10:00 25.0 18.3 67 18 16 6.4 100.79 31   Haze
11:00 27.2 19.4 62 20 16 6.4 100.71 34   Haze
12:00 27.2 18.3 58 20 13 4.8 100.67 33   Haze
13:00 28.3 18.9 56 20 16 6.4 100.61 35   Haze
14:00 26.7 18.9 63 23 10 6.4 100.53 33   Haze
15:00 27.2 19.4 62 23 11 6.4 100.50 34   Haze
16:00 25.6 21.1 77 20 8 4.8 100.46 34   Rain Showers,Haze
17:00 23.9 20.6 81 18 6 4.8 100.40 32   Rain Showers,Haze
18:00 24.4 20.6 78 16 5 6.4 100.35 32   Haze
19:00 24.4 21.1 83 16 8 4.8 100.34 33   Haze
20:00 24.4 19.4 73 23 24 4.8 100.34 31   Haze
21:00 23.3 18.9 76 23 18 19.3 100.36 30   Mostly Cloudy
22:00 22.2 18.9 80 23 13 25.0 100.35 29   Cloudy
23:00 22.2 19.4 84 20 13 25.0 100.35 29   Mostly Cloudy

Notes on Data Quality.

Legend

  • E = Estimated
  • M = Missing
  • NA = Not Available
Date modified: